Other Surface Observations
Issued by NWS

Home | Current Version | Previous Version | Text Only | Print | Product List | Glossary On
Versions: 1 2 3 4 5 6 7 8 9 10 11 12 13 14 15 16 17 18 19 20 21 22 23 24 25 26 27 28 29 30 31 32 33 34 35 36 37 38 39 40 41 42 43 44 45 46 47 48 49 50
000
SXUS52 KTAE 260318
OSOTAE
OSOTAE
North Florida/South Alabama/Southwest Georgia Weather Roundup
National Weather Service Tallahassee Florida
1100 PM EDT SAT APR 25 2015

Note: "fair" indicates few or no clouds below 12,000 feet with no
significant weather and/or obstructions to visibility.

!FLZ017-115-028-034-025-260400
...North Florida...

CITY           SKY/WX    TMP DP  RH WIND       PRES   REMARKS
TALLAHASSEE    CLOUDY    73  70  90 CALM      29.75R
APALACHICOLA   MOCLDY    77  69  76 S13       29.74S
PERRY          CLOUDY    75  73  94 S3        29.75F
CROSS CITY       N/A     75  72  90 S12       29.75F
JACKSONVILLE   CLOUDY    73  71  93 S8        29.76S
$$

!FLZ112-006-005-002-011-260400
...Florida Panhandle...

CITY           SKY/WX    TMP DP  RH WIND       PRES   REMARKS
MARIANNA       PTCLDY    69  69 100 CALM      29.73S
BONIFAY        FAIR      68  67  96 CALM      29.74R
PANAMA CITY NW FAIR      72  69  90 SE6       29.71F
TYNDALL AFB    NOT AVBL
TYND DRONE APT NOT AVBL
DE FUNIAK SPR  FAIR      66  66  99 CALM      29.74S
EGLIN AFB      NOT AVBL
DESTIN         CLOUDY    74  68  81 S5        29.73R
HURLBURT       PTCLDY    72  66  83 S7        29.72R
CRESTVIEW      MOCLDY    66  65  96 CALM      29.74R
PENSACOLA      PTCLDY    70  68  93 S8        29.73R
$$

!ALZ063-066-260400
...South Alabama...

CITY           SKY/WX    TMP DP  RH WIND       PRES   REMARKS
DOTHAN         MOCLDY    67  65  93 SW3       29.77R
OZARK CAIRNS   NOT AVBL
FT RUCKER HELI MOCLDY    66  65  96 CALM      29.73R FOG
RUCKER HELI 3  NOT AVBL
RUCKER HELI 2  FAIR      66  66 100 CALM      29.73R FOG
FLORALA APT    MOCLDY    66  65  96 S3        29.74R
ANDALUSIA      PTCLDY    69  64  84 CALM      29.73R
TROY           MOCLDY    66  65  96 S3        29.73R FOG
EUFALA         FAIR      64  63  96 CALM      29.71S
MOBILE         MOCLDY    68  65  90 SW5       29.75R
$$

!GAZ120>161-260400
...Southwest and South Central Georgia...

CITY           SKY/WX    TMP DP  RH WIND       PRES   REMARKS
THOMASVILLE    FAIR      72  70  94 SW7       29.75R
BAINBRIDGE     CLOUDY    73  72  94 SW3       29.74S
MOODY AFB      NOT AVBL
VALDOSTA       CLOUDY    75  73  93 SW6       29.73F
MOULTRIE       CLOUDY    70  70 100 N3        29.76R
BLAKELY        MOCLDY    68  68 100 CALM      29.74S FOG
ALBANY         PTCLDY    67  65  93 SW5       29.75R
TIFTON         MOCLDY    67  67  97 S5        29.73S
FITZGERALD     FAIR      68  65  91 SW3       29.74S
CORDELE        FAIR      68  66  93 SW5       29.73R
AMERICUS       FAIR      64  64 100 SW5       29.73S
HOMERVILLE     MOCLDY    72  70  94 SE3       29.74F
$$

!GMZ750-755-770-775-260400
...Coastal and Buoy Obs...

STATION/POSITION TIME  TEMP    WIND        PRES    VSBY  WAVE
                       AIR SEA DIR/SP/G                  HT/PER
                 (UTC) (F)     (DEG/KT/KT) (MB)    (MI)  (FT/S)
KEATON BEACH     0300   75     180/ 16/ 19 1007.4F
CEDAR KEY        0300   74     300/  3/  4 1009.6F
C TOWER          0300   73     190/ 16/ 17 1006.9F
APALACHICOLA BUO 0250   77 77  280/ 10/ 12 1010.5F         3/ 5
PANAMA CITY BUOY 0250   74 76  180/ 14/ 17 1008.6F         4/ 7
MOBILE BUOY      0250   76 77  170/ 17/ 19 1007.1R         5/ 6
ORANGE BCH AL BU 0250   75 74  320/  4/  4 1006.6R         3/ 6
$$



USA.gov is the U.S. government's official web portal to all federal, state and local government web resources and services.